GEFSNGP_prec_meanprecacc_090.txt.gz
Total_Precipitation_Accumulation
0.02 0.06 0.09 0.11 0.11 0.08 0.05 0.03 0.05 0.07 0.11 0.12 0.17 0.09 0.04 0.02 0.01 0.01 0.00 0.01 0.01 0.01 0.01 0.02 0.02 0.02 0.03 0.03 0.04 0.05 0.06 0.08 0.08 0.08 0.09 0.09 0.09 0.09 0.08 0.09 0.10 0.13 0.16 0.16
0.01 0.04 0.06 0.08 0.11 0.07 0.04 0.03 0.03 0.04 0.10 0.13 0.13 0.08 0.06 0.05 0.03 0.03 0.03 0.04 0.05 0.06 0.06 0.06 0.06 0.05 0.05 0.06 0.06 0.07 0.09 0.09 0.09 0.12 0.11 0.11 0.11 0.11 0.11 0.12 0.15 0.19 0.22 0.23
0.02 0.05 0.05 0.09 0.08 0.07 0.07 0.06 0.05 0.07 0.11 0.12 0.13 0.13 0.16 0.16 0.16 0.16 0.14 0.12 0.09 0.08 0.06 0.05 0.04 0.04 0.04 0.04 0.06 0.08 0.10 0.11 0.14 0.17 0.18 0.17 0.16 0.15 0.15 0.17 0.21 0.25 0.29 0.32
0.04 0.07 0.10 0.09 0.08 0.06 0.08 0.09 0.09 0.12 0.15 0.18 0.22 0.26 0.32 0.34 0.27 0.17 0.11 0.09 0.07 0.06 0.05 0.05 0.05 0.07 0.07 0.09 0.11 0.14 0.16 0.17 0.22 0.26 0.27 0.27 0.27 0.24 0.26 0.29 0.30 0.32 0.34 0.37
0.06 0.09 0.10 0.11 0.13 0.13 0.12 0.14 0.16 0.22 0.26 0.30 0.30 0.24 0.21 0.16 0.11 0.08 0.07 0.07 0.08 0.09 0.10 0.09 0.09 0.12 0.14 0.15 0.19 0.23 0.25 0.27 0.32 0.39 0.45 0.44 0.41 0.41 0.42 0.42 0.39 0.38 0.38 0.43
0.11 0.14 0.16 0.17 0.23 0.21 0.21 0.33 0.28 0.26 0.23 0.20 0.21 0.31 0.27 0.16 0.11 0.09 0.08 0.07 0.08 0.08 0.08 0.11 0.13 0.13 0.14 0.18 0.23 0.31 0.35 0.34 0.37 0.46 0.56 0.58 0.55 0.55 0.57 0.57 0.53 0.49 0.46 0.49
0.17 0.19 0.16 0.21 0.19 0.17 0.29 0.37 0.28 0.29 0.29 0.26 0.32 0.35 0.30 0.18 0.12 0.10 0.10 0.08 0.08 0.07 0.07 0.08 0.11 0.14 0.18 0.22 0.26 0.29 0.35 0.38 0.40 0.47 0.57 0.57 0.61 0.65 0.66 0.66 0.66 0.64 0.59 0.58
0.26 0.34 0.30 0.26 0.23 0.28 0.37 0.29 0.25 0.23 0.21 0.19 0.18 0.14 0.13 0.12 0.10 0.10 0.10 0.10 0.09 0.09 0.10 0.12 0.14 0.17 0.21 0.24 0.24 0.27 0.29 0.31 0.34 0.42 0.49 0.50 0.60 0.64 0.68 0.69 0.70 0.71 0.72 0.69
0.30 0.36 0.28 0.25 0.25 0.25 0.24 0.22 0.18 0.17 0.13 0.14 0.16 0.14 0.11 0.10 0.11 0.10 0.09 0.08 0.08 0.09 0.11 0.14 0.18 0.23 0.29 0.31 0.32 0.33 0.32 0.32 0.35 0.42 0.56 0.68 0.71 0.67 0.71 0.75 0.73 0.72 0.76 0.78
0.27 0.32 0.31 0.28 0.25 0.19 0.17 0.14 0.09 0.10 0.14 0.13 0.11 0.11 0.11 0.12 0.10 0.08 0.07 0.05 0.06 0.08 0.09 0.11 0.13 0.17 0.23 0.28 0.33 0.38 0.39 0.39 0.40 0.45 0.57 0.81 0.93 0.87 0.80 0.79 0.77 0.77 0.75 0.77
0.27 0.30 0.27 0.28 0.22 0.16 0.12 0.09 0.09 0.09 0.10 0.10 0.07 0.07 0.07 0.07 0.04 0.04 0.04 0.05 0.06 0.08 0.10 0.11 0.12 0.16 0.21 0.28 0.36 0.40 0.39 0.38 0.38 0.44 0.57 0.79 0.95 0.94 0.79 0.76 0.74 0.74 0.73 0.73
0.21 0.22 0.22 0.25 0.19 0.14 0.13 0.13 0.13 0.11 0.09 0.08 0.06 0.06 0.07 0.06 0.05 0.05 0.05 0.06 0.08 0.10 0.13 0.15 0.18 0.24 0.28 0.35 0.43 0.49 0.48 0.44 0.44 0.47 0.56 0.76 0.97 1.03 0.83 0.65 0.63 0.61 0.56 0.54
0.13 0.17 0.21 0.20 0.16 0.16 0.18 0.18 0.16 0.13 0.11 0.08 0.07 0.07 0.06 0.06 0.05 0.06 0.07 0.09 0.13 0.16 0.18 0.21 0.24 0.24 0.25 0.31 0.40 0.46 0.47 0.44 0.42 0.43 0.47 0.59 0.84 1.09 1.12 0.86 0.65 0.55 0.43 0.34
0.14 0.16 0.20 0.21 0.22 0.21 0.19 0.18 0.17 0.15 0.12 0.08 0.06 0.05 0.04 0.05 0.05 0.07 0.11 0.16 0.23 0.26 0.27 0.28 0.27 0.25 0.26 0.33 0.38 0.41 0.41 0.38 0.36 0.36 0.38 0.47 0.69 0.97 1.17 1.15 0.98 0.73 0.45 0.28
0.14 0.17 0.21 0.19 0.19 0.18 0.17 0.15 0.13 0.13 0.10 0.06 0.04 0.04 0.04 0.06 0.09 0.14 0.19 0.29 0.39 0.39 0.36 0.33 0.31 0.28 0.30 0.36 0.38 0.36 0.37 0.33 0.30 0.31 0.32 0.37 0.56 0.83 1.05 1.13 1.08 0.96 0.68 0.37
0.15 0.17 0.16 0.13 0.14 0.13 0.13 0.11 0.09 0.08 0.06 0.05 0.05 0.05 0.06 0.08 0.12 0.16 0.24 0.39 0.56 0.57 0.47 0.41 0.36 0.34 0.34 0.37 0.36 0.32 0.31 0.25 0.20 0.22 0.25 0.30 0.42 0.66 0.92 1.07 1.03 0.98 0.83 0.48
0.18 0.15 0.13 0.13 0.13 0.13 0.13 0.12 0.10 0.08 0.08 0.08 0.08 0.08 0.10 0.14 0.19 0.25 0.36 0.46 0.52 0.51 0.46 0.45 0.39 0.35 0.35 0.36 0.35 0.30 0.27 0.22 0.15 0.15 0.24 0.30 0.37 0.55 0.81 0.99 0.96 0.88 0.76 0.46
0.13 0.12 0.11 0.11 0.12 0.13 0.14 0.15 0.14 0.13 0.12 0.12 0.12 0.11 0.14 0.22 0.33 0.47 0.58 0.62 0.56 0.44 0.39 0.40 0.36 0.32 0.30 0.28 0.26 0.25 0.23 0.23 0.21 0.22 0.28 0.32 0.36 0.54 0.76 0.91 0.88 0.83 0.74 0.51
0.09 0.09 0.09 0.09 0.09 0.09 0.08 0.09 0.08 0.08 0.09 0.12 0.13 0.11 0.13 0.19 0.33 0.51 0.62 0.74 0.79 0.65 0.45 0.33 0.29 0.25 0.24 0.19 0.20 0.20 0.20 0.22 0.22 0.24 0.29 0.28 0.39 0.57 0.72 0.79 0.78 0.74 0.64 0.52
0.07 0.07 0.07 0.07 0.07 0.06 0.06 0.06 0.05 0.05 0.08 0.11 0.11 0.08 0.10 0.16 0.32 0.52 0.65 0.76 0.83 0.75 0.55 0.37 0.25 0.20 0.16 0.12 0.13 0.17 0.20 0.24 0.26 0.28 0.30 0.38 0.48 0.61 0.67 0.66 0.65 0.63 0.59 0.59
0.06 0.05 0.05 0.04 0.03 0.02 0.01 0.01 0.01 0.03 0.07 0.09 0.08 0.07 0.10 0.16 0.28 0.49 0.79 0.98 0.86 0.70 0.54 0.41 0.28 0.18 0.13 0.12 0.11 0.14 0.18 0.22 0.28 0.34 0.38 0.44 0.53 0.62 0.64 0.62 0.57 0.54 0.55 0.58
0.05 0.04 0.03 0.02 0.01 0.01 0.01 0.01 0.01 0.03 0.06 0.06 0.06 0.07 0.12 0.19 0.30 0.42 0.61 0.91 0.97 0.86 0.62 0.42 0.30 0.19 0.14 0.12 0.12 0.14 0.17 0.19 0.25 0.30 0.34 0.38 0.48 0.57 0.56 0.51 0.47 0.47 0.50 0.57
0.06 0.04 0.04 0.02 0.02 0.01 0.01 0.01 0.01 0.02 0.03 0.05 0.05 0.07 0.12 0.20 0.33 0.58 0.71 0.70 0.79 0.88 0.66 0.45 0.36 0.26 0.17 0.13 0.16 0.17 0.18 0.22 0.29 0.32 0.30 0.34 0.37 0.43 0.46 0.44 0.45 0.47 0.52 0.53
0.04 0.04 0.03 0.02 0.01 0.01 0.01 0.01 0.01 0.01 0.02 0.02 0.03 0.04 0.09 0.19 0.27 0.42 0.61 0.69 0.72 0.78 0.61 0.45 0.35 0.26 0.20 0.18 0.22 0.26 0.32 0.39 0.40 0.35 0.30 0.31 0.34 0.39 0.44 0.44 0.41 0.45 0.49 0.51
0.04 0.03 0.02 0.01 0.01 0.02 0.02 0.01 0.02 0.03 0.03 0.03 0.04 0.05 0.08 0.15 0.29 0.44 0.56 0.64 0.76 0.81 0.69 0.54 0.41 0.35 0.30 0.31 0.35 0.44 0.51 0.45 0.39 0.34 0.31 0.31 0.35 0.40 0.42 0.45 0.48 0.48 0.48 0.49
0.03 0.02 0.02 0.02 0.02 0.02 0.02 0.03 0.04 0.04 0.05 0.06 0.07 0.09 0.12 0.19 0.27 0.38 0.49 0.55 0.63 0.73 0.68 0.52 0.36 0.32 0.33 0.38 0.43 0.47 0.47 0.42 0.37 0.35 0.34 0.36 0.39 0.43 0.42 0.46 0.49 0.48 0.48 0.49
0.03 0.03 0.04 0.04 0.04 0.04 0.04 0.06 0.08 0.08 0.11 0.15 0.18 0.21 0.24 0.27 0.31 0.37 0.43 0.48 0.51 0.52 0.49 0.38 0.28 0.28 0.28 0.29 0.33 0.37 0.38 0.39 0.38 0.38 0.39 0.41 0.43 0.44 0.42 0.39 0.39 0.39 0.39 0.39

GEFSNGP_prec_meanprecacc_096.txt.gz
Total_Precipitation_Accumulation
0.05 0.08 0.12 0.14 0.13 0.10 0.07 0.05 0.06 0.10 0.16 0.18 0.25 0.17 0.12 0.13 0.11 0.09 0.07 0.04 0.05 0.06 0.06 0.07 0.11 0.11 0.11 0.10 0.11 0.13 0.15 0.17 0.17 0.16 0.17 0.17 0.16 0.15 0.16 0.17 0.16 0.18 0.19 0.19
0.04 0.07 0.09 0.11 0.14 0.09 0.06 0.05 0.04 0.07 0.15 0.19 0.20 0.16 0.14 0.14 0.13 0.11 0.10 0.10 0.13 0.13 0.13 0.14 0.16 0.18 0.20 0.20 0.22 0.26 0.29 0.32 0.34 0.41 0.41 0.36 0.33 0.31 0.30 0.29 0.29 0.31 0.32 0.30
0.06 0.10 0.10 0.13 0.12 0.10 0.11 0.09 0.08 0.11 0.18 0.18 0.19 0.22 0.31 0.30 0.25 0.24 0.22 0.21 0.20 0.22 0.21 0.19 0.18 0.20 0.23 0.27 0.34 0.41 0.47 0.51 0.56 0.62 0.66 0.64 0.60 0.53 0.49 0.49 0.49 0.48 0.48 0.47
0.10 0.13 0.17 0.14 0.14 0.12 0.13 0.14 0.13 0.17 0.23 0.29 0.38 0.37 0.42 0.42 0.34 0.24 0.19 0.19 0.19 0.24 0.24 0.22 0.25 0.30 0.32 0.34 0.42 0.52 0.62 0.72 0.82 0.83 0.84 0.83 0.81 0.72 0.69 0.73 0.71 0.66 0.62 0.59
0.17 0.18 0.17 0.17 0.20 0.21 0.22 0.25 0.25 0.33 0.39 0.46 0.48 0.36 0.29 0.23 0.16 0.12 0.11 0.13 0.16 0.21 0.26 0.31 0.29 0.32 0.37 0.35 0.42 0.57 0.67 0.70 0.73 0.80 0.90 0.96 0.92 0.89 0.91 0.88 0.77 0.68 0.63 0.64
0.25 0.27 0.28 0.27 0.32 0.29 0.29 0.49 0.43 0.38 0.39 0.42 0.39 0.43 0.36 0.22 0.16 0.13 0.12 0.12 0.13 0.14 0.17 0.23 0.31 0.33 0.32 0.36 0.45 0.60 0.69 0.69 0.67 0.74 0.88 0.99 1.01 0.98 0.95 0.94 0.89 0.82 0.73 0.74
0.35 0.37 0.32 0.32 0.28 0.25 0.40 0.52 0.44 0.43 0.44 0.43 0.46 0.45 0.38 0.24 0.15 0.13 0.12 0.11 0.11 0.11 0.11 0.15 0.20 0.25 0.32 0.40 0.46 0.50 0.57 0.65 0.69 0.75 0.83 0.87 0.94 0.97 0.99 0.98 0.98 0.95 0.89 0.86
0.44 0.55 0.52 0.40 0.32 0.39 0.49 0.43 0.44 0.43 0.38 0.33 0.31 0.25 0.20 0.16 0.14 0.12 0.11 0.11 0.10 0.11 0.12 0.15 0.18 0.21 0.27 0.31 0.34 0.39 0.42 0.45 0.49 0.58 0.69 0.73 0.82 0.86 0.92 0.93 0.92 0.90 0.90 0.85
0.56 0.62 0.49 0.42 0.42 0.44 0.40 0.33 0.32 0.29 0.25 0.25 0.24 0.21 0.16 0.15 0.14 0.12 0.10 0.09 0.08 0.09 0.11 0.15 0.19 0.24 0.31 0.34 0.36 0.38 0.39 0.39 0.42 0.49 0.65 0.80 0.84 0.82 0.85 0.86 0.84 0.82 0.85 0.85
0.60 0.66 0.61 0.54 0.48 0.40 0.36 0.30 0.23 0.21 0.23 0.21 0.18 0.16 0.17 0.16 0.12 0.09 0.07 0.06 0.06 0.08 0.09 0.11 0.13 0.17 0.23 0.28 0.34 0.40 0.43 0.43 0.46 0.52 0.65 0.88 1.00 0.93 0.86 0.85 0.82 0.81 0.78 0.80
0.58 0.69 0.58 0.50 0.43 0.34 0.28 0.24 0.22 0.20 0.17 0.15 0.13 0.14 0.15 0.13 0.08 0.05 0.04 0.05 0.06 0.08 0.11 0.11 0.12 0.16 0.21 0.28 0.36 0.40 0.40 0.38 0.39 0.46 0.60 0.82 0.99 0.97 0.83 0.80 0.77 0.77 0.74 0.74
0.43 0.47 0.46 0.47 0.38 0.30 0.25 0.23 0.23 0.20 0.15 0.13 0.11 0.12 0.14 0.12 0.08 0.07 0.06 0.06 0.09 0.11 0.13 0.15 0.18 0.24 0.28 0.35 0.43 0.49 0.48 0.45 0.45 0.48 0.56 0.77 0.98 1.05 0.85 0.67 0.65 0.63 0.58 0.56
0.33 0.34 0.35 0.32 0.29 0.29 0.28 0.25 0.23 0.19 0.16 0.12 0.11 0.10 0.08 0.09 0.07 0.07 0.08 0.10 0.13 0.16 0.18 0.22 0.24 0.24 0.25 0.31 0.40 0.46 0.47 0.44 0.42 0.43 0.47 0.59 0.84 1.09 1.13 0.87 0.65 0.55 0.44 0.34
0.24 0.24 0.28 0.29 0.29 0.31 0.29 0.25 0.23 0.19 0.18 0.13 0.09 0.07 0.06 0.06 0.06 0.08 0.12 0.17 0.23 0.26 0.27 0.29 0.27 0.25 0.26 0.33 0.38 0.41 0.41 0.38 0.36 0.36 0.38 0.47 0.69 0.97 1.17 1.15 0.98 0.73 0.45 0.28
0.21 0.22 0.26 0.25 0.25 0.23 0.22 0.19 0.16 0.15 0.13 0.09 0.06 0.05 0.05 0.07 0.10 0.14 0.19 0.30 0.39 0.39 0.36 0.33 0.31 0.28 0.30 0.36 0.38 0.36 0.37 0.33 0.30 0.31 0.32 0.37 0.56 0.83 1.05 1.13 1.08 0.96 0.68 0.37
0.21 0.21 0.20 0.18 0.19 0.17 0.15 0.13 0.11 0.09 0.07 0.06 0.05 0.05 0.06 0.08 0.12 0.16 0.24 0.39 0.56 0.57 0.48 0.41 0.36 0.34 0.35 0.38 0.36 0.32 0.31 0.25 0.20 0.22 0.25 0.30 0.42 0.66 0.92 1.07 1.03 0.98 0.83 0.49
0.22 0.19 0.16 0.15 0.15 0.15 0.14 0.13 0.11 0.09 0.09 0.09 0.09 0.09 0.10 0.15 0.19 0.25 0.36 0.46 0.52 0.51 0.47 0.45 0.40 0.36 0.35 0.36 0.35 0.30 0.27 0.22 0.15 0.15 0.24 0.30 0.37 0.55 0.81 0.99 0.96 0.88 0.77 0.46
0.16 0.13 0.12 0.12 0.13 0.14 0.15 0.15 0.15 0.14 0.13 0.12 0.12 0.12 0.14 0.23 0.33 0.47 0.59 0.62 0.57 0.44 0.39 0.40 0.36 0.32 0.31 0.28 0.26 0.25 0.24 0.23 0.21 0.22 0.28 0.32 0.36 0.54 0.76 0.91 0.88 0.83 0.74 0.51
0.11 0.10 0.10 0.10 0.09 0.09 0.09 0.09 0.09 0.08 0.09 0.12 0.13 0.12 0.13 0.20 0.34 0.52 0.63 0.75 0.79 0.65 0.46 0.33 0.29 0.26 0.24 0.20 0.20 0.20 0.20 0.22 0.22 0.24 0.29 0.28 0.39 0.57 0.72 0.79 0.78 0.74 0.64 0.52
0.08 0.08 0.08 0.07 0.07 0.06 0.06 0.07 0.06 0.05 0.08 0.11 0.11 0.09 0.10 0.17 0.32 0.52 0.65 0.76 0.83 0.75 0.55 0.37 0.26 0.20 0.16 0.13 0.13 0.17 0.20 0.24 0.26 0.28 0.31 0.38 0.48 0.61 0.67 0.66 0.65 0.63 0.60 0.59
0.06 0.05 0.05 0.04 0.03 0.02 0.02 0.01 0.01 0.03 0.08 0.09 0.08 0.07 0.11 0.17 0.29 0.50 0.80 0.99 0.87 0.70 0.54 0.41 0.28 0.19 0.13 0.12 0.11 0.14 0.18 0.22 0.28 0.34 0.38 0.44 0.53 0.63 0.64 0.62 0.57 0.54 0.55 0.58
0.05 0.04 0.03 0.03 0.02 0.01 0.01 0.01 0.01 0.03 0.06 0.07 0.06 0.07 0.12 0.20 0.31 0.43 0.62 0.92 0.97 0.87 0.62 0.42 0.30 0.19 0.14 0.13 0.12 0.14 0.17 0.19 0.25 0.31 0.34 0.38 0.48 0.57 0.56 0.51 0.47 0.47 0.51 0.57
0.06 0.05 0.04 0.03 0.02 0.01 0.01 0.01 0.01 0.02 0.03 0.05 0.06 0.08 0.13 0.21 0.34 0.60 0.74 0.72 0.80 0.90 0.67 0.45 0.36 0.26 0.17 0.13 0.16 0.17 0.18 0.22 0.30 0.32 0.30 0.34 0.37 0.44 0.47 0.44 0.46 0.47 0.52 0.54
0.05 0.04 0.03 0.02 0.02 0.02 0.02 0.01 0.01 0.02 0.02 0.03 0.03 0.05 0.10 0.21 0.30 0.44 0.63 0.72 0.74 0.80 0.62 0.45 0.36 0.26 0.20 0.18 0.22 0.27 0.32 0.39 0.40 0.35 0.31 0.32 0.35 0.39 0.45 0.44 0.42 0.45 0.49 0.51
0.05 0.03 0.03 0.02 0.02 0.03 0.02 0.02 0.02 0.03 0.03 0.04 0.04 0.06 0.09 0.17 0.32 0.47 0.59 0.66 0.77 0.82 0.70 0.54 0.42 0.35 0.30 0.31 0.35 0.44 0.51 0.45 0.39 0.34 0.31 0.31 0.35 0.41 0.42 0.45 0.48 0.48 0.48 0.49
0.03 0.03 0.03 0.03 0.02 0.03 0.03 0.03 0.04 0.05 0.06 0.07 0.09 0.10 0.14 0.21 0.30 0.41 0.52 0.57 0.65 0.75 0.69 0.52 0.36 0.33 0.33 0.38 0.43 0.48 0.47 0.42 0.37 0.35 0.34 0.36 0.39 0.43 0.43 0.46 0.50 0.48 0.48 0.50
0.04 0.04 0.04 0.04 0.04 0.04 0.05 0.07 0.08 0.09 0.12 0.16 0.21 0.24 0.27 0.30 0.34 0.40 0.47 0.52 0.55 0.55 0.51 0.39 0.29 0.28 0.28 0.29 0.33 0.37 0.39 0.39 0.39 0.38 0.39 0.41 0.43 0.44 0.42 0.40 0.39 0.40 0.39 0.40

GEFSNGP_prec_meanprecacc_102.txt.gz
Total_Precipitation_Accumulation
0.05 0.08 0.12 0.14 0.13 0.10 0.07 0.05 0.07 0.10 0.16 0.19 0.25 0.17 0.12 0.14 0.12 0.10 0.08 0.05 0.07 0.07 0.08 0.10 0.12 0.14 0.17 0.19 0.21 0.22 0.24 0.26 0.25 0.25 0.27 0.27 0.24 0.23 0.24 0.25 0.24 0.26 0.26 0.24
0.04 0.07 0.10 0.11 0.14 0.10 0.07 0.06 0.05 0.08 0.16 0.20 0.21 0.17 0.15 0.15 0.15 0.12 0.12 0.11 0.14 0.15 0.16 0.17 0.18 0.21 0.24 0.25 0.31 0.36 0.42 0.44 0.45 0.52 0.53 0.47 0.43 0.43 0.42 0.42 0.43 0.45 0.43 0.40
0.07 0.10 0.10 0.13 0.12 0.11 0.12 0.10 0.09 0.12 0.19 0.20 0.20 0.23 0.32 0.31 0.26 0.25 0.24 0.23 0.24 0.26 0.25 0.24 0.23 0.26 0.30 0.34 0.42 0.50 0.59 0.66 0.71 0.75 0.81 0.80 0.75 0.68 0.63 0.65 0.67 0.67 0.63 0.59
0.11 0.14 0.18 0.15 0.16 0.13 0.14 0.15 0.14 0.18 0.24 0.30 0.39 0.40 0.46 0.46 0.37 0.27 0.21 0.22 0.23 0.29 0.31 0.29 0.32 0.37 0.40 0.45 0.54 0.66 0.79 0.90 1.00 0.99 0.97 0.95 0.93 0.83 0.82 0.88 0.89 0.84 0.78 0.73
0.18 0.20 0.18 0.18 0.22 0.23 0.24 0.27 0.27 0.35 0.41 0.49 0.52 0.43 0.36 0.29 0.21 0.17 0.16 0.17 0.21 0.26 0.32 0.38 0.37 0.42 0.47 0.47 0.53 0.68 0.78 0.81 0.84 0.91 0.99 1.05 1.02 1.00 1.03 1.02 0.92 0.84 0.79 0.80
0.28 0.29 0.30 0.29 0.35 0.32 0.32 0.52 0.47 0.42 0.44 0.48 0.46 0.51 0.46 0.31 0.22 0.18 0.16 0.16 0.18 0.19 0.22 0.29 0.39 0.41 0.42 0.46 0.56 0.69 0.78 0.77 0.74 0.81 0.95 1.07 1.11 1.10 1.07 1.05 1.02 0.98 0.90 0.90
0.37 0.40 0.36 0.37 0.32 0.30 0.44 0.56 0.50 0.49 0.50 0.49 0.52 0.51 0.46 0.30 0.21 0.17 0.16 0.14 0.15 0.14 0.15 0.19 0.26 0.31 0.38 0.46 0.53 0.56 0.62 0.69 0.75 0.83 0.93 0.99 1.08 1.12 1.13 1.15 1.18 1.19 1.12 1.06
0.48 0.60 0.58 0.46 0.37 0.45 0.55 0.48 0.52 0.51 0.45 0.41 0.38 0.31 0.27 0.23 0.19 0.17 0.15 0.14 0.13 0.13 0.15 0.18 0.21 0.24 0.31 0.34 0.36 0.41 0.43 0.47 0.51 0.62 0.74 0.81 0.94 0.98 1.04 1.05 1.05 1.06 1.06 1.00
0.65 0.71 0.57 0.51 0.49 0.51 0.47 0.40 0.39 0.39 0.35 0.35 0.35 0.31 0.24 0.22 0.19 0.15 0.12 0.11 0.09 0.11 0.13 0.17 0.21 0.26 0.33 0.35 0.37 0.39 0.39 0.40 0.43 0.50 0.67 0.82 0.87 0.85 0.88 0.90 0.89 0.88 0.92 0.93
0.75 0.80 0.70 0.62 0.57 0.50 0.48 0.41 0.33 0.31 0.35 0.34 0.33 0.27 0.25 0.23 0.16 0.10 0.08 0.07 0.07 0.09 0.10 0.12 0.14 0.18 0.24 0.29 0.34 0.41 0.43 0.44 0.47 0.53 0.67 0.91 1.05 0.98 0.92 0.90 0.87 0.86 0.83 0.84
0.70 0.81 0.67 0.59 0.55 0.50 0.47 0.41 0.36 0.33 0.30 0.25 0.22 0.24 0.23 0.18 0.11 0.07 0.05 0.05 0.06 0.08 0.11 0.11 0.12 0.16 0.21 0.28 0.36 0.40 0.40 0.39 0.39 0.46 0.61 0.83 1.00 1.00 0.88 0.85 0.83 0.82 0.78 0.77
0.56 0.57 0.59 0.61 0.55 0.48 0.44 0.42 0.39 0.34 0.28 0.24 0.20 0.19 0.19 0.14 0.09 0.07 0.06 0.07 0.09 0.11 0.13 0.15 0.18 0.24 0.28 0.35 0.43 0.49 0.48 0.45 0.45 0.48 0.56 0.77 0.98 1.05 0.86 0.70 0.68 0.66 0.60 0.58
0.46 0.45 0.48 0.48 0.47 0.46 0.43 0.39 0.36 0.31 0.26 0.20 0.16 0.13 0.10 0.10 0.07 0.07 0.08 0.10 0.13 0.16 0.18 0.22 0.24 0.24 0.25 0.31 0.40 0.46 0.47 0.44 0.42 0.43 0.47 0.59 0.84 1.09 1.13 0.87 0.65 0.56 0.44 0.34
0.36 0.36 0.44 0.45 0.45 0.48 0.43 0.36 0.32 0.29 0.26 0.21 0.13 0.09 0.07 0.06 0.07 0.08 0.12 0.17 0.23 0.26 0.27 0.29 0.27 0.25 0.26 0.33 0.38 0.41 0.41 0.38 0.36 0.36 0.38 0.47 0.69 0.97 1.17 1.15 0.98 0.73 0.45 0.28
0.33 0.34 0.38 0.34 0.35 0.33 0.31 0.27 0.22 0.22 0.20 0.15 0.11 0.07 0.06 0.07 0.10 0.14 0.19 0.30 0.39 0.39 0.36 0.33 0.31 0.28 0.30 0.36 0.38 0.36 0.37 0.33 0.30 0.31 0.32 0.37 0.56 0.83 1.05 1.13 1.08 0.96 0.68 0.37
0.27 0.29 0.26 0.23 0.24 0.23 0.20 0.18 0.15 0.12 0.10 0.08 0.07 0.06 0.06 0.08 0.12 0.16 0.24 0.39 0.56 0.57 0.48 0.41 0.36 0.34 0.35 0.38 0.36 0.32 0.31 0.25 0.20 0.22 0.25 0.30 0.42 0.66 0.92 1.07 1.03 0.98 0.83 0.49
0.27 0.24 0.21 0.19 0.19 0.18 0.18 0.18 0.15 0.13 0.11 0.10 0.09 0.09 0.10 0.15 0.19 0.25 0.37 0.46 0.52 0.51 0.47 0.45 0.40 0.36 0.35 0.36 0.35 0.31 0.27 0.22 0.15 0.15 0.24 0.30 0.37 0.55 0.81 0.99 0.96 0.88 0.77 0.46
0.20 0.18 0.16 0.15 0.16 0.17 0.18 0.17 0.17 0.15 0.13 0.13 0.13 0.12 0.14 0.23 0.33 0.47 0.59 0.62 0.57 0.45 0.39 0.40 0.36 0.32 0.31 0.28 0.26 0.25 0.24 0.24 0.21 0.22 0.28 0.32 0.36 0.54 0.76 0.91 0.88 0.83 0.74 0.51
0.13 0.12 0.12 0.11 0.11 0.11 0.10 0.10 0.09 0.09 0.09 0.13 0.14 0.12 0.13 0.20 0.34 0.52 0.63 0.75 0.79 0.66 0.46 0.33 0.30 0.26 0.24 0.20 0.20 0.21 0.20 0.22 0.22 0.24 0.29 0.28 0.39 0.57 0.72 0.79 0.78 0.74 0.64 0.53
0.09 0.09 0.08 0.08 0.07 0.07 0.07 0.07 0.06 0.06 0.08 0.12 0.12 0.09 0.11 0.17 0.32 0.53 0.65 0.77 0.84 0.76 0.55 0.37 0.26 0.20 0.16 0.13 0.13 0.17 0.20 0.24 0.26 0.29 0.31 0.38 0.48 0.61 0.67 0.66 0.65 0.63 0.60 0.59
0.07 0.06 0.05 0.04 0.03 0.02 0.02 0.02 0.02 0.04 0.08 0.10 0.09 0.08 0.11 0.17 0.29 0.50 0.80 0.99 0.87 0.70 0.54 0.41 0.28 0.19 0.13 0.12 0.11 0.14 0.18 0.22 0.28 0.34 0.38 0.44 0.53 0.63 0.64 0.62 0.57 0.54 0.55 0.58
0.06 0.05 0.04 0.03 0.02 0.01 0.01 0.01 0.01 0.03 0.06 0.07 0.06 0.07 0.12 0.20 0.31 0.43 0.63 0.93 0.98 0.87 0.62 0.42 0.30 0.20 0.15 0.13 0.12 0.14 0.17 0.19 0.25 0.31 0.34 0.38 0.48 0.57 0.56 0.52 0.47 0.47 0.51 0.57
0.07 0.05 0.04 0.03 0.02 0.01 0.01 0.01 0.01 0.02 0.03 0.05 0.06 0.08 0.13 0.21 0.35 0.60 0.74 0.72 0.81 0.91 0.68 0.47 0.37 0.27 0.17 0.14 0.16 0.18 0.19 0.23 0.30 0.33 0.31 0.34 0.37 0.44 0.47 0.45 0.46 0.47 0.52 0.54
0.05 0.04 0.03 0.02 0.02 0.02 0.02 0.01 0.01 0.02 0.02 0.03 0.04 0.05 0.11 0.21 0.30 0.44 0.63 0.72 0.75 0.81 0.63 0.46 0.36 0.27 0.21 0.18 0.22 0.27 0.33 0.40 0.41 0.36 0.31 0.32 0.35 0.39 0.45 0.45 0.42 0.45 0.50 0.51
0.05 0.04 0.03 0.02 0.03 0.03 0.03 0.02 0.03 0.03 0.03 0.04 0.05 0.06 0.09 0.18 0.33 0.48 0.59 0.67 0.78 0.82 0.70 0.55 0.42 0.35 0.30 0.31 0.35 0.45 0.52 0.46 0.39 0.34 0.31 0.31 0.36 0.41 0.43 0.45 0.48 0.48 0.49 0.49
0.04 0.03 0.03 0.03 0.03 0.03 0.03 0.03 0.04 0.05 0.06 0.08 0.09 0.10 0.14 0.21 0.30 0.41 0.52 0.58 0.65 0.75 0.70 0.53 0.37 0.33 0.34 0.39 0.44 0.48 0.47 0.42 0.37 0.35 0.34 0.36 0.40 0.43 0.43 0.46 0.50 0.49 0.49 0.50
0.04 0.04 0.05 0.05 0.05 0.05 0.05 0.07 0.09 0.10 0.12 0.17 0.21 0.24 0.27 0.30 0.34 0.41 0.47 0.52 0.55 0.55 0.51 0.40 0.30 0.29 0.29 0.30 0.34 0.37 0.39 0.39 0.39 0.38 0.39 0.41 0.43 0.45 0.42 0.40 0.40 0.40 0.39 0.40

GEFSNGP_prec_meanprecacc_108.txt.gz
Total_Precipitation_Accumulation
0.05 0.09 0.12 0.15 0.13 0.10 0.07 0.05 0.07 0.10 0.16 0.19 0.25 0.17 0.12 0.14 0.12 0.11 0.08 0.06 0.07 0.08 0.08 0.10 0.13 0.15 0.18 0.20 0.26 0.30 0.32 0.35 0.34 0.33 0.34 0.33 0.30 0.29 0.31 0.32 0.33 0.36 0.34 0.32
0.04 0.07 0.10 0.11 0.14 0.10 0.07 0.06 0.05 0.08 0.16 0.20 0.21 0.17 0.15 0.15 0.15 0.13 0.12 0.12 0.15 0.16 0.16 0.17 0.19 0.22 0.25 0.26 0.34 0.40 0.48 0.52 0.52 0.59 0.61 0.55 0.51 0.51 0.49 0.49 0.52 0.55 0.53 0.49
0.07 0.10 0.10 0.13 0.12 0.11 0.12 0.10 0.09 0.12 0.19 0.20 0.20 0.23 0.32 0.31 0.27 0.25 0.24 0.24 0.24 0.27 0.25 0.25 0.24 0.27 0.32 0.36 0.45 0.54 0.64 0.74 0.79 0.82 0.88 0.86 0.81 0.76 0.71 0.73 0.77 0.77 0.74 0.69
0.11 0.14 0.19 0.15 0.16 0.13 0.14 0.15 0.14 0.18 0.24 0.30 0.39 0.40 0.47 0.46 0.37 0.27 0.22 0.23 0.25 0.31 0.33 0.30 0.34 0.39 0.42 0.48 0.58 0.71 0.84 0.96 1.07 1.05 1.02 1.01 0.99 0.89 0.88 0.95 0.98 0.96 0.90 0.83
0.20 0.21 0.18 0.18 0.22 0.23 0.24 0.27 0.27 0.35 0.41 0.49 0.53 0.43 0.36 0.30 0.21 0.17 0.16 0.19 0.24 0.29 0.35 0.40 0.40 0.44 0.49 0.49 0.57 0.73 0.85 0.88 0.90 0.96 1.03 1.10 1.08 1.07 1.11 1.11 1.03 0.93 0.87 0.86
0.30 0.31 0.31 0.30 0.36 0.33 0.33 0.53 0.47 0.43 0.45 0.49 0.46 0.52 0.47 0.32 0.24 0.19 0.17 0.18 0.20 0.22 0.25 0.33 0.42 0.44 0.45 0.50 0.59 0.72 0.82 0.82 0.78 0.85 0.99 1.11 1.16 1.16 1.14 1.12 1.08 1.05 0.96 0.97
0.40 0.43 0.37 0.37 0.33 0.31 0.47 0.58 0.52 0.52 0.52 0.52 0.55 0.53 0.49 0.32 0.23 0.20 0.18 0.16 0.17 0.17 0.17 0.23 0.30 0.35 0.41 0.49 0.56 0.59 0.65 0.72 0.77 0.86 0.97 1.03 1.11 1.15 1.18 1.20 1.23 1.24 1.17 1.11
0.52 0.64 0.61 0.47 0.40 0.50 0.60 0.51 0.55 0.55 0.49 0.45 0.41 0.34 0.29 0.25 0.22 0.19 0.17 0.16 0.15 0.16 0.17 0.20 0.23 0.27 0.33 0.36 0.38 0.42 0.45 0.49 0.52 0.63 0.75 0.83 0.96 1.00 1.06 1.08 1.08 1.08 1.09 1.03
0.70 0.76 0.61 0.56 0.56 0.60 0.57 0.47 0.45 0.44 0.41 0.40 0.40 0.35 0.27 0.25 0.22 0.17 0.14 0.12 0.10 0.12 0.14 0.18 0.23 0.28 0.35 0.37 0.39 0.40 0.41 0.41 0.44 0.51 0.67 0.83 0.88 0.86 0.89 0.91 0.90 0.90 0.93 0.94
0.82 0.86 0.77 0.70 0.65 0.57 0.56 0.50 0.42 0.39 0.43 0.43 0.41 0.34 0.31 0.28 0.21 0.14 0.10 0.07 0.08 0.09 0.11 0.13 0.14 0.19 0.25 0.30 0.36 0.42 0.44 0.45 0.47 0.53 0.67 0.91 1.05 0.99 0.92 0.91 0.88 0.87 0.84 0.85
0.78 0.90 0.78 0.69 0.63 0.59 0.57 0.51 0.46 0.43 0.43 0.38 0.32 0.32 0.30 0.24 0.16 0.11 0.08 0.07 0.08 0.09 0.11 0.12 0.13 0.16 0.22 0.29 0.37 0.41 0.41 0.40 0.40 0.47 0.61 0.83 1.00 1.00 0.88 0.86 0.84 0.83 0.81 0.80
0.70 0.72 0.75 0.75 0.66 0.59 0.60 0.58 0.51 0.45 0.42 0.38 0.31 0.28 0.25 0.18 0.12 0.10 0.08 0.08 0.10 0.12 0.14 0.16 0.19 0.24 0.28 0.35 0.44 0.50 0.48 0.45 0.45 0.48 0.57 0.77 0.99 1.05 0.86 0.70 0.69 0.68 0.63 0.61
0.60 0.58 0.64 0.64 0.62 0.63 0.64 0.60 0.55 0.49 0.43 0.37 0.31 0.24 0.16 0.14 0.09 0.08 0.09 0.11 0.14 0.17 0.19 0.22 0.24 0.24 0.25 0.31 0.40 0.46 0.47 0.44 0.42 0.43 0.47 0.59 0.84 1.09 1.13 0.87 0.66 0.56 0.45 0.36
0.50 0.51 0.59 0.61 0.63 0.67 0.66 0.57 0.53 0.50 0.46 0.38 0.29 0.20 0.13 0.10 0.09 0.10 0.13 0.17 0.23 0.27 0.27 0.29 0.27 0.25 0.26 0.33 0.38 0.41 0.41 0.38 0.36 0.36 0.38 0.47 0.69 0.97 1.17 1.15 0.98 0.73 0.45 0.28
0.48 0.50 0.53 0.50 0.56 0.55 0.52 0.44 0.40 0.41 0.38 0.32 0.24 0.17 0.12 0.11 0.12 0.16 0.20 0.30 0.39 0.39 0.36 0.34 0.31 0.29 0.30 0.36 0.38 0.36 0.37 0.33 0.30 0.31 0.32 0.37 0.56 0.83 1.05 1.13 1.08 0.96 0.68 0.37
0.43 0.43 0.40 0.38 0.42 0.45 0.44 0.38 0.32 0.31 0.27 0.21 0.16 0.11 0.10 0.11 0.13 0.17 0.24 0.40 0.56 0.58 0.48 0.42 0.37 0.34 0.35 0.38 0.36 0.32 0.31 0.25 0.20 0.22 0.25 0.30 0.42 0.66 0.92 1.07 1.03 0.98 0.83 0.49
0.43 0.39 0.35 0.32 0.32 0.37 0.40 0.38 0.33 0.29 0.23 0.18 0.15 0.13 0.13 0.17 0.20 0.26 0.37 0.47 0.53 0.52 0.47 0.46 0.40 0.36 0.35 0.36 0.35 0.31 0.27 0.23 0.15 0.15 0.24 0.30 0.37 0.55 0.81 0.99 0.96 0.88 0.77 0.46
0.33 0.30 0.28 0.25 0.25 0.28 0.30 0.28 0.26 0.22 0.20 0.18 0.17 0.15 0.16 0.24 0.34 0.48 0.59 0.63 0.57 0.45 0.39 0.40 0.36 0.32 0.31 0.28 0.26 0.25 0.24 0.24 0.21 0.22 0.28 0.32 0.36 0.54 0.77 0.91 0.88 0.83 0.74 0.51
0.21 0.19 0.19 0.16 0.15 0.15 0.14 0.14 0.12 0.11 0.11 0.14 0.15 0.13 0.14 0.20 0.34 0.52 0.63 0.75 0.79 0.66 0.46 0.33 0.30 0.26 0.24 0.20 0.20 0.21 0.20 0.22 0.22 0.24 0.29 0.28 0.39 0.57 0.72 0.80 0.78 0.75 0.64 0.53
0.14 0.13 0.12 0.11 0.10 0.10 0.10 0.10 0.08 0.08 0.10 0.14 0.13 0.10 0.11 0.17 0.32 0.53 0.66 0.77 0.84 0.76 0.55 0.37 0.26 0.20 0.16 0.13 0.13 0.18 0.21 0.24 0.26 0.29 0.31 0.38 0.48 0.61 0.67 0.66 0.65 0.63 0.60 0.60
0.11 0.10 0.08 0.07 0.05 0.04 0.03 0.03 0.03 0.05 0.09 0.11 0.09 0.08 0.12 0.18 0.29 0.50 0.81 0.99 0.88 0.71 0.55 0.42 0.29 0.19 0.13 0.12 0.11 0.15 0.19 0.22 0.28 0.34 0.38 0.44 0.54 0.63 0.64 0.62 0.57 0.54 0.55 0.59
0.10 0.08 0.07 0.06 0.03 0.02 0.02 0.01 0.02 0.04 0.07 0.08 0.07 0.08 0.13 0.21 0.31 0.43 0.63 0.94 0.99 0.88 0.63 0.43 0.31 0.20 0.15 0.13 0.12 0.14 0.17 0.20 0.25 0.31 0.35 0.39 0.49 0.58 0.57 0.52 0.47 0.47 0.51 0.58
0.09 0.07 0.06 0.04 0.03 0.02 0.01 0.01 0.01 0.02 0.04 0.05 0.07 0.09 0.14 0.22 0.35 0.60 0.75 0.73 0.81 0.91 0.68 0.47 0.37 0.27 0.17 0.14 0.16 0.18 0.19 0.23 0.31 0.33 0.31 0.35 0.38 0.44 0.47 0.45 0.46 0.47 0.52 0.54
0.06 0.05 0.04 0.03 0.02 0.02 0.02 0.02 0.02 0.02 0.03 0.03 0.04 0.06 0.12 0.23 0.31 0.45 0.64 0.73 0.75 0.81 0.63 0.46 0.37 0.27 0.21 0.19 0.23 0.27 0.33 0.40 0.41 0.36 0.31 0.32 0.35 0.39 0.45 0.45 0.42 0.46 0.50 0.51
0.06 0.04 0.03 0.03 0.03 0.03 0.03 0.02 0.03 0.04 0.04 0.04 0.05 0.07 0.10 0.18 0.34 0.49 0.60 0.67 0.78 0.83 0.71 0.55 0.42 0.35 0.31 0.32 0.36 0.46 0.52 0.46 0.39 0.35 0.31 0.31 0.36 0.41 0.43 0.45 0.49 0.49 0.49 0.49
0.05 0.04 0.04 0.04 0.04 0.03 0.03 0.04 0.05 0.06 0.06 0.08 0.09 0.11 0.15 0.21 0.30 0.42 0.53 0.58 0.66 0.75 0.70 0.53 0.37 0.34 0.34 0.39 0.44 0.49 0.48 0.42 0.37 0.35 0.34 0.36 0.40 0.43 0.43 0.46 0.50 0.49 0.49 0.50
0.04 0.05 0.06 0.05 0.05 0.05 0.06 0.08 0.10 0.10 0.13 0.17 0.21 0.24 0.27 0.31 0.34 0.41 0.47 0.53 0.55 0.56 0.52 0.41 0.30 0.30 0.30 0.31 0.35 0.38 0.39 0.40 0.39 0.38 0.39 0.41 0.43 0.45 0.42 0.40 0.40 0.40 0.39 0.40

GEFSNGP_prec_meanprecacc_114.txt.gz
Total_Precipitation_Accumulation
0.05 0.09 0.14 0.19 0.16 0.12 0.08 0.06 0.07 0.10 0.19 0.22 0.29 0.21 0.18 0.18 0.14 0.12 0.09 0.08 0.09 0.09 0.09 0.11 0.15 0.18 0.22 0.26 0.33 0.38 0.42 0.47 0.48 0.49 0.48 0.46 0.42 0.41 0.43 0.43 0.43 0.47 0.49 0.48
0.04 0.07 0.10 0.12 0.16 0.11 0.08 0.06 0.05 0.08 0.18 0.24 0.25 0.19 0.18 0.18 0.20 0.16 0.13 0.13 0.16 0.17 0.17 0.19 0.21 0.24 0.29 0.32 0.41 0.48 0.58 0.63 0.64 0.73 0.74 0.68 0.65 0.66 0.65 0.64 0.67 0.72 0.71 0.67
0.07 0.10 0.11 0.14 0.13 0.11 0.12 0.10 0.09 0.12 0.20 0.22 0.25 0.27 0.34 0.32 0.30 0.28 0.25 0.25 0.26 0.28 0.27 0.26 0.26 0.29 0.34 0.40 0.51 0.61 0.74 0.85 0.93 1.00 1.06 1.03 0.99 0.98 0.92 0.94 0.97 0.96 0.92 0.86
0.12 0.15 0.20 0.16 0.16 0.13 0.14 0.15 0.14 0.18 0.25 0.33 0.43 0.47 0.52 0.49 0.41 0.31 0.23 0.24 0.26 0.33 0.35 0.32 0.36 0.42 0.47 0.56 0.68 0.81 0.96 1.10 1.24 1.23 1.23 1.22 1.19 1.09 1.05 1.11 1.14 1.11 1.04 0.99
0.21 0.23 0.20 0.20 0.24 0.23 0.24 0.28 0.28 0.35 0.42 0.53 0.56 0.47 0.41 0.33 0.27 0.21 0.18 0.19 0.25 0.32 0.39 0.44 0.44 0.49 0.55 0.56 0.66 0.83 0.96 1.01 1.06 1.13 1.20 1.25 1.22 1.21 1.24 1.24 1.14 1.04 0.97 0.96
0.33 0.34 0.33 0.32 0.38 0.34 0.33 0.54 0.50 0.45 0.48 0.51 0.52 0.58 0.51 0.35 0.26 0.22 0.20 0.20 0.21 0.24 0.29 0.37 0.47 0.50 0.51 0.57 0.67 0.81 0.92 0.92 0.90 0.99 1.12 1.21 1.26 1.27 1.25 1.21 1.17 1.13 1.04 1.04
0.45 0.47 0.39 0.39 0.34 0.32 0.50 0.63 0.54 0.54 0.55 0.56 0.62 0.63 0.56 0.37 0.26 0.22 0.21 0.20 0.20 0.20 0.23 0.29 0.37 0.44 0.51 0.58 0.64 0.67 0.74 0.83 0.90 1.01 1.11 1.16 1.23 1.25 1.26 1.26 1.30 1.30 1.23 1.17
0.58 0.70 0.66 0.50 0.41 0.52 0.65 0.53 0.56 0.58 0.54 0.53 0.50 0.42 0.36 0.31 0.27 0.23 0.21 0.20 0.19 0.21 0.24 0.28 0.32 0.35 0.42 0.45 0.46 0.49 0.53 0.57 0.61 0.74 0.87 0.93 1.04 1.08 1.13 1.14 1.12 1.11 1.11 1.05
0.75 0.80 0.66 0.59 0.59 0.62 0.58 0.49 0.49 0.52 0.49 0.52 0.53 0.45 0.34 0.30 0.29 0.27 0.21 0.17 0.15 0.16 0.20 0.24 0.28 0.34 0.41 0.43 0.44 0.44 0.45 0.46 0.49 0.55 0.72 0.87 0.92 0.90 0.93 0.95 0.93 0.92 0.95 0.95
0.86 0.90 0.82 0.77 0.72 0.61 0.58 0.53 0.50 0.53 0.59 0.58 0.54 0.43 0.37 0.34 0.26 0.22 0.17 0.12 0.11 0.12 0.15 0.17 0.18 0.23 0.30 0.34 0.39 0.45 0.47 0.48 0.50 0.56 0.69 0.94 1.07 1.01 0.94 0.93 0.90 0.89 0.86 0.87
0.85 0.95 0.83 0.74 0.69 0.65 0.64 0.59 0.57 0.57 0.62 0.60 0.47 0.41 0.38 0.31 0.22 0.17 0.14 0.11 0.11 0.12 0.14 0.14 0.14 0.18 0.24 0.31 0.39 0.43 0.42 0.41 0.42 0.49 0.63 0.84 1.01 1.01 0.89 0.86 0.85 0.84 0.82 0.81
0.82 0.79 0.81 0.82 0.74 0.68 0.70 0.70 0.65 0.61 0.64 0.61 0.45 0.37 0.32 0.25 0.18 0.15 0.13 0.12 0.13 0.15 0.17 0.18 0.20 0.25 0.29 0.36 0.45 0.50 0.49 0.45 0.45 0.48 0.57 0.77 0.99 1.05 0.86 0.70 0.69 0.68 0.63 0.62
0.69 0.66 0.72 0.75 0.72 0.75 0.79 0.74 0.70 0.66 0.62 0.55 0.44 0.32 0.23 0.20 0.15 0.14 0.14 0.14 0.16 0.18 0.21 0.24 0.26 0.25 0.26 0.32 0.40 0.46 0.47 0.44 0.42 0.43 0.47 0.59 0.84 1.09 1.13 0.87 0.66 0.56 0.45 0.36
0.60 0.61 0.69 0.72 0.75 0.81 0.82 0.72 0.68 0.67 0.63 0.55 0.41 0.30 0.22 0.17 0.16 0.15 0.17 0.20 0.25 0.28 0.29 0.30 0.29 0.26 0.27 0.34 0.39 0.41 0.41 0.38 0.36 0.36 0.38 0.47 0.69 0.98 1.17 1.15 0.99 0.73 0.45 0.28
0.61 0.64 0.65 0.61 0.68 0.69 0.68 0.60 0.55 0.58 0.54 0.49 0.38 0.28 0.23 0.20 0.21 0.23 0.25 0.33 0.41 0.41 0.37 0.35 0.32 0.29 0.31 0.36 0.38 0.37 0.38 0.34 0.31 0.32 0.33 0.38 0.56 0.83 1.05 1.13 1.08 0.96 0.68 0.37
0.55 0.56 0.50 0.49 0.60 0.65 0.62 0.56 0.49 0.49 0.46 0.40 0.33 0.26 0.21 0.20 0.22 0.24 0.29 0.43 0.59 0.60 0.50 0.43 0.38 0.36 0.36 0.39 0.38 0.34 0.32 0.26 0.21 0.23 0.26 0.30 0.42 0.66 0.92 1.07 1.03 0.98 0.83 0.49
0.53 0.50 0.43 0.40 0.49 0.60 0.61 0.57 0.51 0.50 0.46 0.38 0.33 0.30 0.28 0.29 0.30 0.34 0.44 0.52 0.58 0.56 0.51 0.48 0.42 0.36 0.36 0.37 0.36 0.31 0.27 0.23 0.16 0.16 0.24 0.30 0.37 0.55 0.81 0.99 0.96 0.88 0.77 0.46
0.44 0.40 0.36 0.33 0.36 0.44 0.47 0.44 0.41 0.40 0.40 0.37 0.34 0.33 0.34 0.38 0.44 0.56 0.65 0.67 0.61 0.48 0.41 0.42 0.37 0.32 0.31 0.28 0.26 0.25 0.24 0.24 0.21 0.22 0.28 0.32 0.37 0.54 0.77 0.91 0.88 0.83 0.74 0.51
0.29 0.28 0.27 0.22 0.23 0.26 0.25 0.25 0.23 0.22 0.23 0.26 0.27 0.24 0.25 0.29 0.40 0.57 0.67 0.79 0.83 0.68 0.47 0.33 0.30 0.26 0.24 0.20 0.20 0.21 0.20 0.22 0.22 0.25 0.29 0.28 0.39 0.57 0.72 0.80 0.79 0.75 0.65 0.53
0.20 0.20 0.18 0.16 0.15 0.16 0.17 0.16 0.14 0.14 0.16 0.21 0.19 0.15 0.16 0.21 0.36 0.56 0.70 0.81 0.88 0.78 0.56 0.37 0.26 0.21 0.16 0.13 0.13 0.18 0.21 0.24 0.27 0.29 0.31 0.38 0.48 0.61 0.67 0.67 0.65 0.63 0.60 0.60
0.17 0.15 0.12 0.10 0.08 0.07 0.08 0.07 0.06 0.08 0.12 0.14 0.12 0.11 0.14 0.20 0.32 0.54 0.85 1.04 0.90 0.72 0.55 0.42 0.29 0.19 0.13 0.12 0.12 0.15 0.19 0.23 0.29 0.34 0.38 0.44 0.54 0.63 0.65 0.62 0.57 0.54 0.56 0.59
0.16 0.13 0.11 0.08 0.05 0.05 0.05 0.05 0.04 0.06 0.09 0.09 0.08 0.09 0.15 0.23 0.34 0.47 0.67 0.97 1.01 0.89 0.63 0.43 0.31 0.20 0.15 0.13 0.12 0.14 0.17 0.20 0.25 0.31 0.35 0.39 0.49 0.58 0.57 0.52 0.48 0.48 0.51 0.58
0.14 0.11 0.10 0.08 0.05 0.04 0.04 0.03 0.03 0.04 0.06 0.08 0.09 0.11 0.16 0.25 0.39 0.64 0.78 0.74 0.81 0.91 0.69 0.48 0.38 0.27 0.17 0.14 0.17 0.18 0.19 0.24 0.31 0.34 0.32 0.35 0.38 0.44 0.47 0.45 0.46 0.48 0.53 0.54
0.12 0.09 0.08 0.06 0.05 0.05 0.06 0.05 0.05 0.06 0.06 0.06 0.06 0.08 0.14 0.25 0.34 0.47 0.65 0.73 0.76 0.81 0.64 0.47 0.37 0.27 0.21 0.19 0.23 0.28 0.34 0.41 0.42 0.37 0.32 0.33 0.35 0.39 0.45 0.45 0.42 0.46 0.50 0.52
0.11 0.07 0.06 0.04 0.05 0.05 0.05 0.04 0.05 0.06 0.05 0.06 0.07 0.08 0.11 0.20 0.35 0.50 0.60 0.68 0.78 0.83 0.71 0.56 0.42 0.35 0.31 0.32 0.37 0.47 0.54 0.47 0.40 0.35 0.31 0.31 0.36 0.41 0.43 0.46 0.49 0.49 0.49 0.49
0.08 0.06 0.06 0.05 0.05 0.05 0.04 0.04 0.06 0.07 0.08 0.10 0.11 0.12 0.16 0.22 0.31 0.43 0.53 0.59 0.66 0.76 0.71 0.53 0.37 0.34 0.34 0.39 0.45 0.50 0.49 0.43 0.37 0.35 0.34 0.36 0.40 0.43 0.43 0.46 0.50 0.49 0.49 0.50
0.07 0.07 0.08 0.07 0.06 0.06 0.07 0.09 0.11 0.11 0.14 0.19 0.23 0.25 0.28 0.31 0.36 0.42 0.48 0.54 0.56 0.56 0.52 0.41 0.31 0.30 0.30 0.31 0.36 0.39 0.40 0.40 0.39 0.39 0.39 0.41 0.43 0.45 0.42 0.40 0.40 0.40 0.39 0.40

GEFSNGP_prec_meanprecacc_120.txt.gz
Total_Precipitation_Accumulation
0.05 0.09 0.14 0.19 0.17 0.13 0.09 0.06 0.08 0.11 0.21 0.27 0.35 0.30 0.28 0.31 0.28 0.27 0.20 0.15 0.14 0.14 0.14 0.21 0.25 0.29 0.34 0.35 0.46 0.53 0.62 0.65 0.63 0.67 0.72 0.71 0.69 0.69 0.65 0.63 0.63 0.67 0.68 0.67
0.04 0.07 0.10 0.13 0.16 0.11 0.08 0.07 0.06 0.09 0.20 0.27 0.28 0.23 0.25 0.26 0.29 0.26 0.22 0.19 0.20 0.22 0.22 0.22 0.25 0.31 0.36 0.39 0.48 0.61 0.77 0.82 0.83 0.94 0.98 0.98 0.97 0.99 0.93 0.85 0.88 0.94 0.93 0.87
0.07 0.10 0.11 0.15 0.14 0.12 0.12 0.10 0.10 0.14 0.23 0.25 0.29 0.31 0.42 0.43 0.40 0.41 0.34 0.32 0.32 0.33 0.31 0.28 0.28 0.32 0.38 0.44 0.56 0.70 0.86 1.01 1.09 1.18 1.27 1.31 1.32 1.29 1.20 1.19 1.22 1.21 1.13 1.03
0.12 0.15 0.20 0.17 0.17 0.15 0.16 0.18 0.17 0.22 0.29 0.36 0.46 0.52 0.61 0.64 0.53 0.46 0.39 0.34 0.32 0.39 0.39 0.35 0.39 0.46 0.54 0.64 0.77 0.92 1.06 1.22 1.38 1.37 1.37 1.39 1.39 1.30 1.28 1.34 1.36 1.30 1.21 1.12
0.22 0.23 0.21 0.21 0.25 0.25 0.27 0.34 0.35 0.40 0.47 0.57 0.61 0.53 0.51 0.46 0.39 0.32 0.30 0.31 0.31 0.36 0.43 0.49 0.48 0.53 0.62 0.65 0.74 0.91 1.05 1.12 1.19 1.26 1.34 1.41 1.40 1.42 1.44 1.42 1.30 1.16 1.08 1.06
0.35 0.36 0.35 0.34 0.39 0.35 0.35 0.62 0.59 0.54 0.56 0.59 0.61 0.70 0.61 0.46 0.38 0.34 0.30 0.28 0.29 0.30 0.34 0.42 0.51 0.54 0.57 0.64 0.76 0.90 1.02 1.05 1.03 1.12 1.25 1.36 1.41 1.42 1.39 1.35 1.30 1.24 1.14 1.12
0.49 0.50 0.42 0.40 0.35 0.33 0.53 0.70 0.62 0.63 0.66 0.67 0.73 0.76 0.67 0.51 0.42 0.36 0.34 0.31 0.30 0.32 0.32 0.37 0.46 0.52 0.61 0.70 0.76 0.80 0.88 0.97 1.03 1.15 1.26 1.32 1.38 1.38 1.38 1.38 1.40 1.39 1.31 1.23
0.62 0.74 0.71 0.53 0.42 0.55 0.69 0.59 0.67 0.70 0.64 0.64 0.62 0.54 0.48 0.44 0.48 0.44 0.37 0.35 0.35 0.39 0.42 0.42 0.43 0.47 0.54 0.56 0.56 0.61 0.66 0.71 0.75 0.87 1.00 1.07 1.17 1.19 1.24 1.22 1.18 1.17 1.15 1.08
0.79 0.85 0.70 0.62 0.63 0.65 0.62 0.55 0.58 0.64 0.63 0.63 0.63 0.55 0.42 0.38 0.38 0.45 0.45 0.41 0.40 0.41 0.40 0.40 0.41 0.45 0.51 0.53 0.53 0.53 0.53 0.54 0.56 0.63 0.79 0.94 1.00 0.99 1.02 1.04 1.02 0.99 1.00 0.98
0.93 0.96 0.86 0.80 0.75 0.65 0.63 0.60 0.55 0.60 0.70 0.69 0.65 0.55 0.46 0.39 0.31 0.28 0.28 0.27 0.32 0.34 0.36 0.36 0.35 0.37 0.41 0.43 0.47 0.53 0.53 0.53 0.55 0.59 0.72 0.96 1.10 1.06 1.00 0.99 0.96 0.94 0.90 0.90
0.94 1.04 0.89 0.80 0.76 0.75 0.71 0.66 0.62 0.63 0.70 0.70 0.58 0.52 0.47 0.38 0.28 0.23 0.20 0.18 0.20 0.24 0.25 0.24 0.24 0.26 0.31 0.37 0.45 0.48 0.45 0.43 0.43 0.50 0.64 0.86 1.03 1.03 0.91 0.89 0.87 0.87 0.84 0.83
0.89 0.86 0.89 0.90 0.84 0.78 0.79 0.78 0.72 0.68 0.73 0.70 0.58 0.47 0.39 0.30 0.22 0.20 0.19 0.17 0.19 0.23 0.25 0.26 0.27 0.31 0.35 0.41 0.48 0.53 0.51 0.46 0.46 0.49 0.57 0.78 0.99 1.05 0.86 0.70 0.69 0.68 0.64 0.62
0.74 0.71 0.77 0.81 0.80 0.84 0.88 0.85 0.81 0.77 0.74 0.67 0.62 0.48 0.33 0.26 0.20 0.19 0.19 0.19 0.21 0.23 0.25 0.28 0.31 0.30 0.30 0.36 0.44 0.49 0.49 0.45 0.42 0.43 0.47 0.59 0.84 1.09 1.13 0.87 0.66 0.57 0.45 0.36
0.64 0.66 0.74 0.79 0.82 0.88 0.90 0.82 0.78 0.78 0.73 0.66 0.56 0.46 0.35 0.29 0.25 0.23 0.23 0.26 0.30 0.32 0.33 0.35 0.33 0.30 0.30 0.36 0.42 0.44 0.44 0.41 0.39 0.38 0.39 0.47 0.69 0.98 1.18 1.16 1.00 0.74 0.46 0.29
0.65 0.71 0.72 0.67 0.74 0.76 0.76 0.70 0.65 0.69 0.65 0.59 0.50 0.40 0.33 0.31 0.33 0.34 0.35 0.40 0.48 0.46 0.41 0.38 0.36 0.33 0.33 0.38 0.40 0.40 0.41 0.38 0.36 0.36 0.36 0.41 0.59 0.85 1.07 1.15 1.10 0.98 0.70 0.39
0.59 0.62 0.57 0.55 0.65 0.71 0.70 0.64 0.58 0.60 0.56 0.50 0.45 0.39 0.34 0.32 0.33 0.34 0.38 0.50 0.66 0.66 0.54 0.46 0.41 0.38 0.38 0.40 0.39 0.35 0.33 0.28 0.23 0.25 0.28 0.33 0.44 0.68 0.93 1.08 1.04 0.99 0.84 0.49
0.58 0.56 0.51 0.50 0.59 0.70 0.70 0.67 0.62 0.60 0.56 0.51 0.47 0.44 0.42 0.43 0.42 0.45 0.52 0.59 0.63 0.60 0.54 0.51 0.44 0.38 0.37 0.38 0.36 0.31 0.28 0.23 0.16 0.16 0.25 0.31 0.37 0.56 0.81 0.99 0.96 0.89 0.77 0.46
0.47 0.44 0.42 0.41 0.46 0.55 0.56 0.51 0.50 0.50 0.50 0.51 0.49 0.46 0.48 0.53 0.60 0.69 0.75 0.75 0.66 0.52 0.44 0.44 0.39 0.34 0.33 0.30 0.27 0.25 0.24 0.24 0.21 0.22 0.28 0.32 0.37 0.54 0.77 0.91 0.88 0.83 0.74 0.52
0.31 0.32 0.32 0.28 0.28 0.31 0.30 0.30 0.29 0.29 0.31 0.35 0.36 0.35 0.37 0.40 0.51 0.66 0.74 0.84 0.87 0.71 0.49 0.35 0.31 0.27 0.25 0.20 0.20 0.21 0.20 0.22 0.22 0.25 0.29 0.28 0.39 0.57 0.72 0.80 0.79 0.75 0.65 0.54
0.24 0.24 0.23 0.21 0.19 0.19 0.20 0.19 0.18 0.18 0.21 0.26 0.25 0.23 0.24 0.29 0.43 0.62 0.74 0.84 0.91 0.80 0.58 0.39 0.28 0.22 0.17 0.13 0.13 0.18 0.21 0.24 0.27 0.29 0.31 0.38 0.48 0.61 0.67 0.67 0.65 0.63 0.60 0.60
0.21 0.20 0.17 0.14 0.11 0.09 0.10 0.09 0.07 0.09 0.14 0.17 0.16 0.14 0.18 0.24 0.35 0.57 0.87 1.06 0.93 0.73 0.56 0.42 0.30 0.20 0.14 0.13 0.12 0.15 0.19 0.23 0.29 0.35 0.39 0.44 0.54 0.63 0.65 0.62 0.57 0.54 0.56 0.59
0.20 0.17 0.14 0.11 0.08 0.07 0.07 0.07 0.06 0.08 0.10 0.11 0.11 0.13 0.17 0.26 0.36 0.48 0.68 0.98 1.02 0.89 0.63 0.44 0.31 0.20 0.15 0.13 0.12 0.14 0.17 0.20 0.25 0.31 0.35 0.39 0.49 0.58 0.57 0.52 0.48 0.48 0.51 0.58
0.20 0.15 0.13 0.10 0.08 0.07 0.06 0.05 0.05 0.07 0.07 0.09 0.10 0.13 0.18 0.27 0.40 0.65 0.78 0.74 0.82 0.91 0.69 0.48 0.38 0.27 0.18 0.14 0.17 0.18 0.19 0.24 0.31 0.34 0.32 0.35 0.38 0.44 0.47 0.45 0.46 0.48 0.53 0.54
0.19 0.14 0.11 0.08 0.07 0.08 0.08 0.06 0.06 0.08 0.08 0.08 0.07 0.09 0.15 0.27 0.35 0.48 0.66 0.73 0.76 0.81 0.64 0.47 0.37 0.28 0.21 0.19 0.23 0.28 0.34 0.41 0.42 0.37 0.32 0.33 0.35 0.39 0.45 0.45 0.42 0.46 0.50 0.52
0.16 0.11 0.08 0.06 0.06 0.07 0.06 0.05 0.06 0.08 0.07 0.08 0.08 0.10 0.12 0.20 0.36 0.51 0.61 0.68 0.79 0.83 0.71 0.56 0.43 0.36 0.31 0.32 0.37 0.47 0.54 0.47 0.40 0.35 0.31 0.31 0.36 0.41 0.43 0.46 0.49 0.49 0.49 0.49
0.11 0.09 0.08 0.07 0.06 0.06 0.05 0.05 0.07 0.08 0.09 0.11 0.12 0.13 0.17 0.22 0.31 0.43 0.54 0.59 0.66 0.76 0.71 0.53 0.37 0.34 0.35 0.40 0.45 0.50 0.49 0.43 0.38 0.36 0.35 0.36 0.40 0.43 0.43 0.46 0.50 0.49 0.49 0.50
0.09 0.09 0.10 0.08 0.07 0.07 0.07 0.10 0.11 0.12 0.14 0.19 0.23 0.26 0.28 0.32 0.36 0.43 0.49 0.54 0.56 0.56 0.52 0.41 0.31 0.30 0.30 0.31 0.36 0.39 0.40 0.40 0.40 0.39 0.40 0.42 0.43 0.45 0.42 0.40 0.40 0.40 0.39 0.40

GEFSNGP_prec_meanprecacc_126.txt.gz
Total_Precipitation_Accumulation
0.05 0.09 0.14 0.19 0.17 0.13 0.09 0.06 0.08 0.11 0.21 0.27 0.35 0.30 0.29 0.31 0.29 0.28 0.21 0.16 0.16 0.16 0.17 0.24 0.29 0.32 0.39 0.46 0.58 0.60 0.69 0.73 0.75 0.81 0.87 0.90 0.90 0.90 0.85 0.84 0.83 0.87 0.88 0.85
0.04 0.07 0.10 0.13 0.16 0.11 0.08 0.07 0.06 0.09 0.20 0.27 0.28 0.23 0.26 0.26 0.30 0.27 0.23 0.21 0.22 0.24 0.24 0.24 0.26 0.32 0.40 0.43 0.52 0.65 0.82 0.90 0.94 1.08 1.18 1.21 1.26 1.28 1.20 1.11 1.14 1.19 1.15 1.06
0.07 0.10 0.11 0.15 0.14 0.12 0.12 0.11 0.10 0.15 0.23 0.25 0.29 0.31 0.43 0.43 0.41 0.42 0.35 0.33 0.33 0.35 0.33 0.31 0.30 0.34 0.40 0.47 0.59 0.74 0.93 1.10 1.22 1.34 1.46 1.54 1.59 1.59 1.50 1.48 1.50 1.49 1.39 1.23
0.12 0.15 0.20 0.17 0.18 0.15 0.16 0.18 0.18 0.22 0.29 0.37 0.47 0.53 0.62 0.66 0.54 0.48 0.41 0.36 0.35 0.42 0.43 0.40 0.43 0.49 0.56 0.67 0.82 0.98 1.14 1.32 1.49 1.50 1.51 1.56 1.60 1.54 1.53 1.59 1.61 1.57 1.47 1.34
0.22 0.23 0.21 0.22 0.25 0.25 0.27 0.35 0.35 0.41 0.47 0.58 0.63 0.56 0.54 0.50 0.42 0.34 0.32 0.34 0.35 0.40 0.48 0.54 0.54 0.60 0.68 0.71 0.82 1.00 1.16 1.24 1.31 1.40 1.50 1.55 1.54 1.58 1.60 1.61 1.50 1.38 1.31 1.28
0.35 0.36 0.35 0.34 0.39 0.35 0.36 0.62 0.60 0.55 0.57 0.61 0.64 0.73 0.65 0.49 0.41 0.38 0.34 0.33 0.35 0.37 0.42 0.51 0.59 0.61 0.64 0.71 0.83 1.01 1.15 1.18 1.18 1.29 1.42 1.50 1.52 1.52 1.49 1.47 1.44 1.39 1.31 1.29
0.49 0.51 0.42 0.40 0.35 0.34 0.54 0.71 0.63 0.64 0.68 0.69 0.75 0.79 0.70 0.54 0.45 0.40 0.38 0.36 0.38 0.43 0.44 0.46 0.54 0.59 0.68 0.78 0.85 0.90 0.99 1.07 1.15 1.29 1.39 1.43 1.47 1.47 1.46 1.46 1.48 1.48 1.40 1.31
0.62 0.74 0.71 0.53 0.43 0.56 0.70 0.60 0.68 0.71 0.65 0.66 0.65 0.58 0.51 0.48 0.52 0.48 0.41 0.38 0.39 0.46 0.55 0.58 0.58 0.59 0.63 0.66 0.67 0.74 0.79 0.84 0.88 0.99 1.12 1.18 1.27 1.28 1.32 1.29 1.25 1.23 1.22 1.16
0.80 0.86 0.70 0.63 0.64 0.66 0.64 0.56 0.59 0.65 0.64 0.65 0.66 0.58 0.45 0.40 0.41 0.47 0.47 0.43 0.43 0.46 0.51 0.52 0.56 0.62 0.69 0.68 0.66 0.66 0.66 0.66 0.68 0.73 0.89 1.03 1.08 1.07 1.10 1.11 1.09 1.06 1.07 1.04
0.94 0.97 0.87 0.81 0.77 0.67 0.65 0.62 0.56 0.62 0.72 0.73 0.69 0.59 0.49 0.42 0.34 0.31 0.30 0.29 0.35 0.39 0.46 0.49 0.48 0.51 0.57 0.61 0.62 0.66 0.66 0.65 0.65 0.70 0.80 1.05 1.18 1.12 1.06 1.04 1.00 0.99 0.94 0.93
0.95 1.05 0.89 0.81 0.78 0.76 0.72 0.68 0.65 0.66 0.74 0.74 0.63 0.58 0.52 0.42 0.32 0.27 0.24 0.22 0.25 0.29 0.32 0.32 0.33 0.37 0.40 0.45 0.52 0.56 0.54 0.51 0.52 0.58 0.71 0.91 1.07 1.06 0.93 0.90 0.89 0.89 0.86 0.85
0.90 0.88 0.90 0.92 0.85 0.81 0.83 0.82 0.76 0.72 0.77 0.75 0.64 0.55 0.46 0.36 0.27 0.25 0.23 0.22 0.25 0.28 0.32 0.34 0.35 0.40 0.44 0.47 0.54 0.59 0.56 0.53 0.52 0.54 0.62 0.82 1.02 1.07 0.87 0.71 0.70 0.70 0.65 0.63
0.75 0.72 0.78 0.83 0.81 0.86 0.92 0.89 0.86 0.83 0.79 0.71 0.67 0.55 0.39 0.32 0.26 0.24 0.23 0.23 0.26 0.29 0.33 0.38 0.42 0.39 0.37 0.42 0.51 0.56 0.55 0.52 0.49 0.49 0.53 0.64 0.87 1.11 1.14 0.88 0.67 0.58 0.47 0.38
0.65 0.67 0.76 0.81 0.84 0.90 0.92 0.85 0.82 0.83 0.80 0.72 0.65 0.56 0.45 0.37 0.32 0.29 0.30 0.33 0.36 0.39 0.41 0.43 0.41 0.38 0.37 0.42 0.47 0.50 0.52 0.48 0.44 0.42 0.43 0.51 0.72 1.01 1.20 1.18 1.01 0.76 0.48 0.31
0.67 0.74 0.75 0.69 0.75 0.78 0.79 0.72 0.68 0.74 0.72 0.67 0.58 0.49 0.43 0.40 0.41 0.41 0.41 0.47 0.54 0.52 0.47 0.46 0.42 0.37 0.37 0.42 0.44 0.44 0.46 0.44 0.40 0.40 0.40 0.45 0.63 0.90 1.11 1.19 1.13 1.01 0.73 0.41
0.62 0.64 0.58 0.57 0.67 0.75 0.75 0.67 0.61 0.65 0.62 0.58 0.54 0.48 0.44 0.41 0.41 0.42 0.47 0.58 0.72 0.72 0.60 0.52 0.47 0.42 0.41 0.42 0.41 0.37 0.36 0.30 0.25 0.27 0.31 0.36 0.47 0.70 0.96 1.10 1.05 0.99 0.84 0.49
0.61 0.58 0.53 0.53 0.62 0.74 0.75 0.70 0.65 0.64 0.61 0.58 0.57 0.54 0.52 0.52 0.51 0.53 0.61 0.68 0.71 0.68 0.60 0.56 0.49 0.42 0.41 0.41 0.39 0.34 0.30 0.26 0.18 0.17 0.26 0.31 0.38 0.56 0.81 0.99 0.96 0.89 0.77 0.46
0.51 0.46 0.44 0.43 0.49 0.58 0.60 0.56 0.55 0.54 0.55 0.58 0.59 0.55 0.57 0.62 0.68 0.78 0.83 0.83 0.74 0.59 0.51 0.50 0.43 0.37 0.35 0.32 0.29 0.27 0.26 0.25 0.22 0.23 0.29 0.32 0.37 0.54 0.77 0.91 0.88 0.83 0.74 0.52
0.34 0.34 0.34 0.31 0.32 0.34 0.34 0.34 0.33 0.33 0.35 0.40 0.43 0.43 0.45 0.50 0.59 0.73 0.79 0.89 0.93 0.77 0.53 0.38 0.33 0.29 0.27 0.21 0.21 0.22 0.21 0.23 0.23 0.25 0.29 0.29 0.39 0.57 0.72 0.80 0.79 0.75 0.65 0.54
0.28 0.27 0.26 0.25 0.23 0.21 0.22 0.22 0.21 0.21 0.24 0.29 0.29 0.28 0.30 0.35 0.47 0.65 0.77 0.87 0.93 0.83 0.61 0.41 0.29 0.23 0.18 0.14 0.14 0.18 0.22 0.25 0.27 0.29 0.31 0.38 0.49 0.61 0.67 0.67 0.65 0.64 0.60 0.60
0.24 0.23 0.20 0.18 0.14 0.11 0.11 0.11 0.09 0.11 0.16 0.19 0.18 0.17 0.21 0.28 0.39 0.59 0.89 1.08 0.94 0.74 0.57 0.44 0.31 0.20 0.14 0.13 0.12 0.15 0.19 0.23 0.29 0.35 0.39 0.44 0.54 0.63 0.65 0.63 0.57 0.55 0.56 0.59
0.24 0.20 0.16 0.14 0.10 0.09 0.09 0.08 0.07 0.09 0.11 0.13 0.13 0.14 0.19 0.28 0.39 0.50 0.69 0.99 1.02 0.90 0.64 0.44 0.32 0.21 0.16 0.14 0.12 0.14 0.17 0.20 0.25 0.31 0.35 0.39 0.49 0.58 0.57 0.52 0.48 0.48 0.51 0.58
0.23 0.18 0.15 0.12 0.10 0.08 0.07 0.06 0.06 0.08 0.09 0.10 0.11 0.14 0.19 0.28 0.41 0.66 0.79 0.75 0.82 0.91 0.70 0.49 0.39 0.29 0.19 0.15 0.17 0.18 0.19 0.24 0.31 0.34 0.32 0.35 0.38 0.44 0.48 0.45 0.47 0.48 0.53 0.55
0.22 0.17 0.13 0.10 0.09 0.09 0.10 0.08 0.08 0.09 0.09 0.09 0.08 0.10 0.16 0.28 0.37 0.49 0.67 0.74 0.76 0.81 0.64 0.48 0.38 0.29 0.23 0.21 0.24 0.29 0.34 0.41 0.42 0.37 0.32 0.33 0.35 0.39 0.45 0.45 0.42 0.46 0.50 0.52
0.19 0.13 0.10 0.09 0.09 0.09 0.08 0.07 0.08 0.09 0.09 0.09 0.10 0.11 0.13 0.21 0.37 0.52 0.62 0.68 0.79 0.84 0.72 0.56 0.43 0.37 0.32 0.34 0.38 0.48 0.54 0.47 0.40 0.35 0.32 0.32 0.36 0.41 0.43 0.46 0.49 0.49 0.49 0.49
0.15 0.12 0.10 0.08 0.07 0.07 0.07 0.07 0.09 0.09 0.10 0.12 0.13 0.14 0.18 0.23 0.32 0.44 0.54 0.60 0.66 0.76 0.71 0.54 0.38 0.34 0.35 0.40 0.46 0.51 0.50 0.44 0.38 0.36 0.35 0.37 0.40 0.43 0.43 0.46 0.50 0.49 0.49 0.50
0.11 0.11 0.11 0.10 0.08 0.08 0.08 0.11 0.13 0.13 0.15 0.20 0.24 0.26 0.29 0.33 0.37 0.44 0.50 0.55 0.57 0.57 0.53 0.42 0.31 0.30 0.30 0.32 0.36 0.39 0.40 0.41 0.40 0.39 0.40 0.42 0.44 0.45 0.42 0.40 0.40 0.40 0.39 0.40

GEFSNGP_prec_meanprecacc_132.txt.gz
Total_Precipitation_Accumulation
0.05 0.09 0.14 0.19 0.17 0.13 0.09 0.06 0.08 0.11 0.21 0.27 0.35 0.30 0.29 0.31 0.29 0.28 0.21 0.17 0.16 0.16 0.17 0.25 0.30 0.34 0.40 0.48 0.60 0.62 0.71 0.75 0.78 0.88 0.96 1.00 1.03 1.02 0.96 0.95 0.94 0.99 1.02 0.98
0.04 0.07 0.10 0.13 0.16 0.11 0.08 0.07 0.06 0.09 0.20 0.27 0.28 0.23 0.26 0.26 0.30 0.27 0.23 0.21 0.22 0.24 0.24 0.25 0.27 0.33 0.41 0.44 0.55 0.68 0.85 0.93 0.98 1.13 1.23 1.32 1.42 1.49 1.41 1.33 1.35 1.38 1.33 1.24
0.07 0.10 0.11 0.15 0.14 0.12 0.12 0.11 0.10 0.15 0.23 0.25 0.29 0.31 0.43 0.43 0.41 0.42 0.35 0.34 0.33 0.35 0.34 0.31 0.31 0.35 0.41 0.48 0.61 0.77 0.96 1.13 1.24 1.39 1.52 1.64 1.72 1.76 1.71 1.72 1.76 1.77 1.66 1.48
0.12 0.16 0.20 0.17 0.18 0.15 0.16 0.18 0.18 0.22 0.29 0.37 0.47 0.53 0.62 0.66 0.55 0.49 0.41 0.36 0.35 0.42 0.44 0.40 0.44 0.50 0.58 0.69 0.83 1.01 1.17 1.34 1.52 1.55 1.58 1.65 1.69 1.66 1.68 1.78 1.82 1.78 1.68 1.55
0.22 0.23 0.21 0.22 0.25 0.25 0.27 0.35 0.35 0.41 0.47 0.58 0.63 0.56 0.54 0.51 0.44 0.36 0.34 0.36 0.36 0.42 0.49 0.55 0.56 0.61 0.69 0.73 0.84 1.03 1.19 1.28 1.35 1.46 1.56 1.60 1.61 1.66 1.70 1.71 1.61 1.49 1.44 1.44
0.35 0.36 0.35 0.34 0.39 0.35 0.36 0.63 0.60 0.55 0.57 0.61 0.64 0.74 0.66 0.50 0.42 0.40 0.37 0.36 0.38 0.40 0.44 0.53 0.61 0.63 0.65 0.73 0.85 1.04 1.19 1.22 1.23 1.36 1.48 1.55 1.58 1.61 1.57 1.54 1.50 1.46 1.39 1.39
0.49 0.51 0.42 0.40 0.35 0.34 0.55 0.72 0.63 0.65 0.68 0.69 0.76 0.81 0.72 0.55 0.46 0.41 0.40 0.37 0.39 0.45 0.45 0.48 0.57 0.62 0.70 0.80 0.88 0.94 1.03 1.12 1.19 1.34 1.45 1.47 1.53 1.53 1.53 1.52 1.54 1.54 1.47 1.38
0.63 0.75 0.71 0.53 0.43 0.56 0.70 0.60 0.68 0.71 0.66 0.67 0.66 0.59 0.53 0.48 0.53 0.49 0.42 0.40 0.41 0.48 0.58 0.60 0.61 0.62 0.67 0.70 0.71 0.77 0.83 0.89 0.94 1.04 1.17 1.23 1.32 1.33 1.37 1.36 1.32 1.30 1.28 1.21
0.81 0.86 0.71 0.63 0.65 0.67 0.64 0.56 0.60 0.66 0.65 0.67 0.67 0.59 0.46 0.42 0.42 0.49 0.48 0.45 0.45 0.49 0.53 0.56 0.61 0.66 0.74 0.73 0.70 0.70 0.71 0.72 0.73 0.78 0.94 1.10 1.16 1.14 1.16 1.17 1.16 1.13 1.12 1.10
0.96 0.98 0.87 0.81 0.77 0.68 0.66 0.63 0.58 0.64 0.73 0.74 0.71 0.60 0.50 0.44 0.36 0.33 0.33 0.32 0.38 0.42 0.49 0.54 0.53 0.56 0.63 0.67 0.68 0.72 0.73 0.73 0.74 0.77 0.87 1.12 1.25 1.19 1.13 1.11 1.08 1.06 1.01 1.01
0.98 1.06 0.90 0.81 0.78 0.77 0.74 0.69 0.66 0.67 0.75 0.75 0.65 0.61 0.55 0.44 0.34 0.29 0.27 0.26 0.29 0.33 0.36 0.37 0.37 0.41 0.45 0.50 0.58 0.62 0.60 0.58 0.58 0.65 0.77 0.97 1.12 1.13 1.00 0.97 0.96 0.96 0.93 0.90
0.93 0.89 0.91 0.92 0.86 0.82 0.84 0.83 0.77 0.73 0.78 0.76 0.66 0.58 0.51 0.40 0.31 0.27 0.26 0.26 0.29 0.33 0.36 0.38 0.39 0.44 0.50 0.57 0.64 0.66 0.62 0.57 0.56 0.58 0.67 0.86 1.07 1.12 0.92 0.75 0.73 0.73 0.68 0.65
0.75 0.73 0.79 0.84 0.83 0.88 0.93 0.90 0.87 0.83 0.79 0.72 0.70 0.60 0.45 0.37 0.32 0.30 0.28 0.28 0.31 0.33 0.37 0.43 0.46 0.42 0.43 0.51 0.60 0.65 0.62 0.57 0.53 0.53 0.57 0.69 0.92 1.15 1.17 0.91 0.69 0.60 0.48 0.39
0.66 0.68 0.78 0.83 0.86 0.92 0.93 0.86 0.82 0.84 0.80 0.73 0.66 0.59 0.49 0.42 0.37 0.34 0.35 0.37 0.41 0.44 0.45 0.49 0.48 0.44 0.42 0.47 0.52 0.56 0.58 0.54 0.49 0.47 0.48 0.56 0.78 1.05 1.24 1.21 1.04 0.78 0.49 0.32
0.69 0.76 0.77 0.71 0.78 0.80 0.80 0.73 0.69 0.76 0.74 0.68 0.60 0.51 0.46 0.45 0.46 0.46 0.46 0.52 0.59 0.58 0.52 0.50 0.47 0.43 0.42 0.46 0.48 0.48 0.51 0.50 0.47 0.46 0.47 0.51 0.68 0.94 1.14 1.21 1.15 1.03 0.74 0.42
0.64 0.66 0.61 0.60 0.70 0.77 0.77 0.69 0.63 0.68 0.66 0.61 0.59 0.54 0.49 0.46 0.46 0.47 0.52 0.62 0.77 0.78 0.65 0.56 0.52 0.47 0.45 0.46 0.45 0.41 0.41 0.38 0.32 0.33 0.38 0.42 0.52 0.74 0.98 1.12 1.06 1.01 0.85 0.50
0.64 0.60 0.57 0.56 0.64 0.75 0.77 0.72 0.68 0.68 0.67 0.65 0.64 0.60 0.58 0.58 0.56 0.58 0.67 0.73 0.76 0.73 0.65 0.60 0.53 0.47 0.45 0.46 0.44 0.39 0.35 0.30 0.22 0.21 0.30 0.36 0.42 0.59 0.83 1.01 0.97 0.89 0.77 0.47
0.54 0.49 0.47 0.45 0.51 0.60 0.63 0.59 0.59 0.59 0.62 0.67 0.67 0.62 0.65 0.70 0.74 0.84 0.89 0.88 0.79 0.64 0.56 0.54 0.48 0.42 0.40 0.37 0.34 0.32 0.30 0.30 0.26 0.27 0.32 0.35 0.39 0.56 0.78 0.92 0.89 0.84 0.75 0.52
0.39 0.37 0.37 0.33 0.35 0.37 0.38 0.39 0.39 0.38 0.40 0.47 0.50 0.51 0.54 0.58 0.65 0.78 0.83 0.92 0.96 0.81 0.58 0.44 0.40 0.35 0.33 0.26 0.24 0.23 0.23 0.25 0.25 0.27 0.31 0.30 0.40 0.58 0.73 0.81 0.79 0.75 0.65 0.54
0.31 0.30 0.29 0.28 0.27 0.26 0.27 0.27 0.26 0.26 0.30 0.35 0.35 0.33 0.35 0.41 0.53 0.70 0.81 0.90 0.95 0.85 0.63 0.45 0.32 0.26 0.20 0.15 0.15 0.19 0.22 0.25 0.28 0.30 0.32 0.39 0.49 0.62 0.68 0.67 0.66 0.64 0.61 0.60
0.28 0.27 0.23 0.22 0.19 0.16 0.15 0.14 0.13 0.16 0.22 0.24 0.22 0.21 0.26 0.32 0.42 0.61 0.91 1.09 0.95 0.75 0.58 0.45 0.32 0.21 0.15 0.13 0.12 0.15 0.20 0.23 0.29 0.35 0.39 0.45 0.54 0.63 0.65 0.63 0.58 0.55 0.56 0.59
0.29 0.25 0.21 0.18 0.13 0.12 0.12 0.11 0.10 0.11 0.14 0.16 0.16 0.17 0.22 0.30 0.41 0.52 0.70 1.00 1.03 0.90 0.64 0.45 0.32 0.21 0.16 0.14 0.12 0.15 0.17 0.20 0.26 0.31 0.35 0.39 0.49 0.58 0.57 0.52 0.48 0.48 0.52 0.58
0.29 0.24 0.20 0.16 0.13 0.11 0.09 0.09 0.09 0.10 0.11 0.13 0.13 0.15 0.20 0.29 0.42 0.68 0.81 0.76 0.82 0.92 0.70 0.49 0.39 0.29 0.19 0.15 0.17 0.19 0.20 0.24 0.31 0.34 0.32 0.35 0.38 0.44 0.48 0.45 0.47 0.48 0.53 0.55
0.28 0.22 0.17 0.13 0.12 0.11 0.12 0.10 0.10 0.11 0.11 0.10 0.09 0.11 0.17 0.29 0.38 0.51 0.68 0.74 0.76 0.81 0.64 0.48 0.38 0.29 0.23 0.21 0.25 0.29 0.35 0.41 0.43 0.37 0.32 0.33 0.35 0.40 0.46 0.45 0.43 0.46 0.50 0.52
0.24 0.17 0.13 0.11 0.11 0.11 0.10 0.08 0.10 0.11 0.10 0.11 0.11 0.12 0.14 0.22 0.38 0.53 0.63 0.69 0.79 0.84 0.72 0.56 0.43 0.37 0.32 0.34 0.39 0.48 0.55 0.48 0.41 0.36 0.32 0.32 0.36 0.41 0.43 0.46 0.49 0.49 0.49 0.49
0.18 0.14 0.12 0.10 0.09 0.09 0.08 0.08 0.10 0.11 0.11 0.13 0.15 0.15 0.19 0.24 0.33 0.44 0.55 0.60 0.67 0.77 0.71 0.54 0.38 0.35 0.35 0.41 0.47 0.51 0.50 0.45 0.39 0.37 0.36 0.37 0.41 0.44 0.43 0.46 0.50 0.49 0.49 0.50
0.14 0.12 0.13 0.11 0.10 0.10 0.10 0.13 0.14 0.15 0.17 0.21 0.25 0.27 0.30 0.34 0.38 0.44 0.50 0.56 0.58 0.58 0.53 0.42 0.32 0.30 0.30 0.32 0.36 0.40 0.41 0.41 0.40 0.40 0.40 0.42 0.44 0.45 0.43 0.40 0.40 0.40 0.39 0.40